Flag for Romania Weather past 2 weeks in Bucharest, Romania

Now
37 °F

Fog.


Feels Like: 33 °F
Forecast: 35 / 46 °F
Wind: 6 mph from Southwest

Location: Bucharest / Imh

Current Time: Dec 20, 2014 at 1:48:57 AM

Latest Report: Dec 20, 2014 at 1:00 AM


Visibility: 2 mi

Pressure: 30.04 "Hg

Humidity: 100%

Dew point: 37 °F

Location of BucharestLocation

Historic Weather in Bucharest — Graph

°F

Bucharest temperature yesterday

Maximum temperature yesterday: 39 °F (at 6:30 PM)
Minimum temperature yesterday: 34 °F (at 3:30 AM)
Average temperature yesterday: 36 °F

Past Weeks' High & Low Weather Summary

 TemperatureHumidityPressure
High52 °F (Dec 13, 1:30 PM)100% (Dec 5, 12:00 AM)30.33 "Hg (Dec 5, 12:00 AM)
Low28 °F (Dec 13, 4:30 AM)41% (Dec 13, 2:00 PM)29.86 "Hg (Dec 17, 4:30 PM)
Average35 °F95%30.12 "Hg
* Reported Midnight between Dec 4 and Dec 5 — Dec 20 12:30 AM, Bucharest, Weather by CustomWeather, © 2014

Note: Actual official high and low records may vary slightly from our data, if they occured in-between our weather recording intervals... More about our weather records

Advertising

Bucharest weather history for previous 24 hours

 ConditionsComfort  
Time TempWeatherWind HumidityBarometerVisibility
12:30 AM
Dec 20
37 °FFog.3 mph100%30.04 "Hg2 mi
12:00 AM39 °FFog.7 mph93%30.07 "Hg2 mi
11:30 PM
Dec 19
39 °FFog.7 mph93%30.07 "HgN/A
11:00 PM39 °FFog.9 mph93%30.07 "Hg2 mi
10:30 PM39 °FFog.7 mph93%30.07 "Hg1 mi
10:00 PM39 °FFog.8 mph93%30.07 "Hg2 mi
9:30 PM39 °FFog.8 mph100%30.07 "Hg2 mi
9:00 PM39 °FFog.7 mph100%30.07 "Hg2 mi
8:30 PM39 °FFog.3 mph93%30.09 "Hg2 mi
8:00 PM39 °FFog.7 mph100%30.09 "Hg2 mi
7:30 PM39 °FFog.8 mph100%30.09 "Hg2 mi
7:00 PM39 °FFog.8 mph93%30.09 "Hg3 mi
6:30 PM39 °FFog.8 mph93%30.09 "Hg2 mi
6:00 PM37 °FFog.7 mph100%30.09 "Hg2 mi
5:30 PM37 °FFog.8 mph93%30.09 "Hg2 mi
5:00 PM37 °FFog.8 mph100%30.09 "Hg2 mi
4:30 PM37 °FFog.9 mph93%30.09 "Hg2 mi
4:00 PM37 °FFog.9 mph93%30.09 "Hg2 mi
3:30 PM37 °FFog.12 mph100%30.12 "Hg2 mi
3:00 PM37 °FFog.10 mph100%30.12 "Hg3 mi
2:30 PM37 °FScattered clouds.9 mph100%30.12 "Hg4 mi
2:00 PM37 °FScattered clouds.10 mph100%30.12 "Hg4 mi
1:30 PM37 °FFog.8 mph93%30.12 "Hg2 mi
1:00 PM36 °FFog.9 mph100%30.12 "Hg1 mi
12:30 PM36 °FFog.8 mph100%30.15 "Hg1 mi
12:00 PM36 °FFog.7 mph100%30.15 "Hg1 mi
11:30 AM36 °FFog.5 mph100%30.15 "Hg1 mi
11:00 AM36 °FFog.7 mph93%30.18 "Hg0 mi
10:30 AM34 °FFog.9 mph100%30.18 "Hg0 mi
10:00 AM34 °FFog.7 mph100%30.18 "Hg0 mi
9:30 AM34 °FFog.7 mph93%30.15 "Hg0 mi
9:00 AM34 °FFog.5 mph93%30.18 "Hg0 mi
8:30 AM34 °FFog.5 mph93%30.18 "Hg0 mi
8:00 AM34 °FFog.5 mph93%30.15 "Hg0 mi
7:30 AM34 °FFog.7 mph93%30.15 "Hg0 mi
7:00 AM34 °FFog.5 mph93%30.15 "Hg0 mi
6:30 AM34 °FFog.5 mph93%30.15 "Hg0 mi
6:00 AM34 °FDrizzle. Fog.5 mph100%30.15 "Hg0 mi
5:30 AM34 °FFog.5 mph93%30.15 "Hg0 mi
5:00 AM34 °FDrizzle. Fog.5 mph93%30.15 "Hg0 mi
4:30 AM34 °FDrizzle. Fog.5 mph100%30.15 "Hg0 mi
4:00 AM34 °FDrizzle. Fog.5 mph100%30.15 "Hg0 mi
3:30 AM34 °FFog.3 mph100%30.15 "Hg0 mi
3:00 AM36 °FDrizzle. Fog.3 mph93%30.15 "Hg0 mi
2:30 AM36 °FFog.3 mph93%30.15 "Hg0 mi
2:00 AM36 °FFog.5 mph93%30.15 "Hg0 mi
1:30 AM36 °FFog.6 mph93%30.15 "Hg0 mi
1:00 AM36 °FDrizzle. Fog.5 mph100%30.15 "Hg0 mi
Weather by CustomWeather, © 2014

See weather overviewHow to use our weather pages